Crystal Mt.
Crystal Mt. Ski Area
Latest observation 08/31 17:00 PDT
| Time (PDT) | Temp °F 6830' | Temp °F 4540' | RH % 6830' | RH % 4540' | Min 6830' | Spd 6830' | Gust 6830' | Dir 6830' | Pcp1 in 4540' | PcpSum in 4540' | 24Sno in 4540' | SnoHt in 4540' |
|---|---|---|---|---|---|---|---|---|---|---|---|---|
| 08/31 17:00 | – | 73 | – | 33 | – | – | – | – | 0.00 | 0.01 | 0.0 | -0.5 |
| 08/31 16:00 | – | 72 | – | 30 | – | – | – | – | 0.00 | 0.01 | -0.0 | -0.6 |
| 08/31 15:00 | – | 71 | – | 31 | – | – | – | – | 0.00 | 0.01 | 0.0 | -0.1 |
| 08/31 14:00 | – | 70 | – | 34 | – | – | – | – | 0.00 | 0.01 | 0.1 | 0.2 |
| 08/31 13:00 | – | 67 | – | 37 | – | – | – | – | 0.00 | 0.01 | 0.1 | 0.2 |
| 08/31 12:00 | – | 65 | – | 45 | – | – | – | – | 0.00 | 0.01 | 0.1 | -0.1 |
| 08/31 11:00 | – | 62 | – | 58 | – | – | – | – | 0.00 | 0.01 | -0.2 | -0.8 |
| 08/31 10:00 | – | 57 | – | 70 | – | – | – | – | 0.00 | 0.01 | -0.2 | -0.6 |
| 08/31 09:00 | – | 51 | – | 79 | – | – | – | – | 0.00 | 0.01 | -0.1 | -0.3 |
| 08/31 08:00 | – | 47 | – | 85 | – | – | – | – | 0.00 | 0.01 | 0.0 | -0.1 |
| 08/31 07:00 | – | 45 | – | 96 | – | – | – | – | 0.00 | 0.01 | 0.1 | 0.3 |
| 08/31 06:00 | – | 44 | – | 97 | – | – | – | – | 0.00 | 0.01 | 0.1 | 0.1 |
| 08/31 05:00 | – | 44 | – | 97 | – | – | – | – | 0.00 | 0.01 | 0.1 | 0.2 |
| 08/31 04:00 | – | 45 | – | 98 | – | – | – | – | 0.01 | 0.01 | 0.1 | 0.3 |
| 08/31 03:00 | – | 45 | – | 98 | – | – | – | – | 0.00 | 0.00 | 0.1 | 0.2 |
| 08/31 02:00 | – | 44 | – | 98 | – | – | – | – | 0.00 | 0.00 | 0.1 | 0.3 |
| 08/31 01:00 | – | 43 | – | 97 | – | – | – | – | 0.00 | 0.00 | 0.1 | 0.2 |
| 08/31 00:00 | – | 42 | – | 96 | – | – | – | – | 0.00 | 0.00 | 0.1 | 0.2 |
| 08/30 23:00 | – | 42 | – | 96 | – | – | – | – | 0.00 | 0.00 | 0.1 | 0.1 |
| 08/30 22:00 | – | 42 | – | 95 | – | – | – | – | 0.00 | 0.00 | 0.1 | 0.1 |
| 08/30 21:00 | – | 43 | – | 93 | – | – | – | – | 0.00 | 0.00 | 0.1 | 0.1 |
| 08/30 20:00 | – | 45 | – | 91 | – | – | – | – | 0.00 | 0.00 | 0.1 | -0.0 |
| 08/30 19:00 | – | 49 | – | 84 | – | – | – | – | 0.00 | 0.00 | 0.1 | -0.0 |
| 08/30 18:00 | – | 54 | – | 71 | – | – | – | – | 0.00 | 0.00 | 0.1 | 0.3 |

